This is the latest recevied weather packets stored in our database for station/object KM6YFK-13. If no packets are shown the sender has not sent any weather packets the latest 10 day(s).
| Time | Temp. | Humidity | Pressure | Rain* | Wind** | Luminosity | Snow |
|---|---|---|---|---|---|---|---|
| 1777929509 | 24.44° C | 50% | 1016 hPa | 0 mm | - | 484 W/m² | - |
| 1777929208 | 24.44° C | 50% | 1016 hPa | 0 mm | - | 505 W/m² | - |
| 1777928907 | 23.89° C | 50% | 1016.1 hPa | 0 mm | - | 527 W/m² | - |
| 1777928607 | 23.89° C | 51% | 1016 hPa | 0 mm | - | 546 W/m² | - |
| 1777928307 | 24.44° C | 50% | 1016.1 hPa | 0 mm | - | 120 W/m² | - |
| 1777928008 | 24.44° C | 48% | 1016.2 hPa | 0 mm | - | 586 W/m² | - |
| 1777927707 | 24.44° C | 49% | 1016.2 hPa | 0 mm | - | 620 W/m² | - |
| 1777927408 | 24.44° C | 49% | 1016.2 hPa | 0 mm | - | 621 W/m² | - |
| 1777927108 | 24.44° C | 49% | 1016.2 hPa | 0 mm | - | 637 W/m² | - |
| 1777926809 | 24.44° C | 48% | 1016.2 hPa | 0 mm | - | 650 W/m² | - |
| 1777926508 | 24.44° C | 50% | 1016.2 hPa | 0 mm | - | 666 W/m² | - |
| 1777926207 | 24.44° C | 49% | 1016.2 hPa | 0 mm | - | 684 W/m² | - |
| 1777925908 | 24.44° C | 49% | 1016.2 hPa | 0 mm | - | 702 W/m² | - |
| 1777925608 | 24.44° C | 50% | 1016.3 hPa | 0 mm | - | 716 W/m² | - |
| 1777925308 | 24.44° C | 50% | 1016.3 hPa | 0 mm | - | 733 W/m² | - |
| 1777925007 | 24.44° C | 50% | 1016.3 hPa | 0 mm | - | 747 W/m² | - |
| 1777924707 | 24.44° C | 49% | 1016.3 hPa | 0 mm | - | 761 W/m² | - |
| 1777924407 | 24.44° C | 47% | 1016.4 hPa | 0 mm | - | 775 W/m² | - |
| 1777924108 | 24.44° C | 50% | 1016.5 hPa | 0 mm | - | 791 W/m² | - |
| 1777923807 | 24.44° C | 49% | 1016.6 hPa | 0 mm | - | 806 W/m² | - |
| 1777923510 | 24.44° C | 50% | 1016.6 hPa | 0 mm | - | 818 W/m² | - |
| 1777923207 | 24.44° C | 49% | 1016.7 hPa | 0 mm | - | 838 W/m² | - |
| 1777922908 | 24.44° C | 50% | 1016.6 hPa | 0 mm | - | 839 W/m² | - |
| 1777922608 | 24.44° C | 49% | 1016.7 hPa | 0 mm | - | 868 W/m² | - |
| 1777922308 | 24.44° C | 49% | 1016.7 hPa | 0 mm | - | 875 W/m² | - |
* Rain latest hour (hover to see other rain measurements)
** Current wind speed in m/s (hover to see current wind gust speed)